K5RLW Weather Reports


time (UTC)temp
C
wind
direction
speed
KPH
gust
KPH
rain 1hr
cm
rain 24hr
cm
rain mn
cm
humidity
%
barometer
mb
20260508020016 17 0.0 0.0 0.00 0.00 0.00 70 1015.8
20260508015016 17 0.0 0.0 0.00 0.00 0.00 69 1015.9
20260508014015 17 0.0 0.0 0.00 0.00 0.00 68 1015.9
20260508013015 18 0.0 0.0 0.00 0.00 0.00 68 1015.9
20260508012016 18 0.0 0.0 0.00 0.00 0.00 67 1015.9
20260508011016 18 0.0 0.0 0.00 0.00 0.00 66 1015.9
20260508010015 19 0.0 0.0 0.00 0.00 0.00 66 1015.8
20260508005016 20 0.0 0.0 0.00 0.00 0.00 65 1015.9
20260508004015 20 0.0 0.0 0.00 0.00 0.00 63 1015.9
20260508003015 20 0.0 0.0 0.00 0.00 0.00 62 1015.8
20260508002015 20 0.0 0.0 0.00 0.00 0.00 61 1015.9
20260508001015 20 0.0 0.0 0.00 0.00 0.00 59 1016.1
20260508000015 20 0.0 0.0 0.00 0.00 0.00 58 1016.0
20260507235015 20 0.0 0.0 0.00 0.00 0.00 58 1016.3
20260507234015 20 0.0 0.0 0.00 0.00 0.00 57 1016.2
20260507233015 20 0.0 0.0 0.00 0.00 0.00 57 1016.3
20260507232016 21 0.0 0.0 0.00 0.00 0.00 57 1016.3
20260507231015 21 0.0 0.0 0.00 0.00 0.00 58 1016.3
20260507230015 21 0.0 0.0 0.00 0.00 0.00 56 1016.4
20260507225015 21 0.0 0.0 0.00 0.00 0.00 55 1016.5
20260507224015 21 0.0 0.0 0.00 0.00 0.00 58 1016.5
20260507223015 21 0.0 0.0 0.00 0.00 0.00 56 1016.6
20260507222015 21 0.0 0.0 0.00 0.00 0.00 56 1016.7
20260507221015 21 0.0 0.0 0.00 0.00 0.00 56 1016.7
20260507220015 22 0.0 0.0 0.00 0.00 0.00 58 1016.7
20260507215015 22 0.0 0.0 0.00 0.00 0.00 55 1016.8
20260507214015 22 135 1.6 4.8 0.00 0.00 0.00 53 1016.9
20260507213015 22 135 1.6 4.8 0.00 0.00 0.00 54 1017.0
20260507212016 22 0.0 1.6 0.00 0.00 0.00 54 1017.3
20260507211015 22 0.0 3.2 0.00 0.00 0.00 55 1017.4
20260507210035 22 0.0 0.0 0.00 0.00 0.00 54 1017.6
20260507205015 22 135 1.6 6.4 0.00 0.00 0.00 51 1017.8
20260507204015 22 135 3.2 8.0 0.00 0.00 0.00 52 1017.7
20260507203035 22 135 1.6 4.8 0.00 0.00 0.00 54 1017.6
20260507202015 22 135 1.6 4.8 0.00 0.00 0.00 52 1017.4
20260507201015 22 338 1.6 6.4 0.00 0.00 0.00 53 1017.8
20260507200017 22 158 1.6 4.8 0.00 0.00 0.00 52 1017.9
20260507194037 22 135 4.8 14.5 0.00 0.00 0.00 53 1018.3
20260507193037 22 135 3.2 9.7 0.00 0.00 0.00 52 1018.4
20260507192017 21 135 1.6 4.8 0.00 0.00 0.00 53 1018.7
20260507191017 21 158 1.6 8.0 0.00 0.00 0.00 53 1019.0
20260507190017 21 23 3.2 14.5 0.00 0.00 0.00 53 1019.0
20260507185017 21 0.0 0.0 0.00 0.00 0.00 53 1019.1
20260507184017 21 0.0 0.0 0.00 0.00 0.00 52 1019.0
20260507183017 21 0.0 0.0 0.00 0.00 0.00 52 1019.0
20260507182037 21 0.0 0.0 0.00 0.00 0.00 53 1019.2
20260507181017 21 0.0 0.0 0.00 0.00 0.00 52 1019.3
20260507180017 21 0.0 0.0 0.00 0.00 0.00 54 1019.4
20260507175016 21 0.0 0.0 0.00 0.00 0.00 55 1019.5
20260507174017 20 0.0 0.0 0.00 0.00 0.00 57 1019.7
20260507173017 20 0.0 0.0 0.00 0.00 0.00 55 1020.0
20260507172037 20 0.0 0.0 0.00 0.00 0.00 58 1020.3
20260507171017 20 0.0 0.0 0.00 0.00 0.00 60 1020.4
20260507170017 19 0.0 0.0 0.00 0.00 0.00 60 1020.9
20260507165017 18 0.0 0.0 0.00 0.00 0.00 62 1021.1
20260507164016 18 0.0 0.0 0.00 0.00 0.00 62 1021.3
20260507163016 18 0.0 0.0 0.00 0.00 0.00 62 1021.3
20260507162036 18 0.0 0.0 0.00 0.00 0.00 61 1021.4
20260507161057 18 0.0 0.0 0.00 0.00 0.00 63 1021.3
20260507160036 18 0.0 0.0 0.00 0.00 0.00 64 1021.1
20260507155036 18 0.0 0.0 0.00 0.00 0.00 64 1021.1
20260507154017 18 0.0 0.0 0.00 0.00 0.00 63 1021.2
20260507153037 18 0.0 0.0 0.00 0.00 0.00 65 1021.4
20260507152016 17 0.0 0.0 0.00 0.03 0.00 68 1021.5
20260507151016 16 0.0 0.0 0.00 0.03 0.00 67 1021.5
20260507150016 16 0.0 0.0 0.00 0.03 0.00 71 1021.6
20260507145016 16 0.0 0.0 0.00 0.08 0.00 73 1021.7
20260507144016 16 0.0 0.0 0.00 0.10 0.00 74 1021.7
20260507143016 15 0.0 0.0 0.00 0.10 0.00 74 1021.7
20260507142037 15 0.0 0.0 0.00 0.10 0.00 78 1021.7
20260507141016 14 0.0 0.0 0.00 0.10 0.00 81 1021.8
20260507140016 13 0.0 0.0 0.00 0.10 0.00 82 1021.7
20260507135016 13 0.0 0.0 0.00 0.10 0.00 82 1021.8
20260507134016 13 0.0 0.0 0.00 0.10 0.00 84 1022.0
20260507133016 12 0.0 0.0 0.00 0.10 0.00 85 1022.1
20260507132016 12 0.0 0.0 0.00 0.10 0.00 86 1021.9
20260507131016 12 0.0 0.0 0.00 0.10 0.00 89 1022.0
20260507130016 11 0.0 0.0 0.00 0.10 0.00 90 1021.9
20260507125016 11 0.0 0.0 0.00 0.10 0.00 90 1021.6
20260507124016 11 0.0 0.0 0.00 0.10 0.00 90 1021.5
20260507123016 11 0.0 0.0 0.00 0.10 0.00 90 1021.5
20260507122036 10 0.0 0.0 0.00 0.10 0.00 90 1021.4
20260507121016 10 0.0 0.0 0.00 0.10 0.00 89 1021.5
20260507120016 10 0.0 0.0 0.00 0.10 0.00 89 1021.5
20260507115016 10 0.0 0.0 0.00 0.10 0.00 89 1021.3
20260507114016 10 0.0 0.0 0.00 0.10 0.00 89 1021.2
20260507113016 10 0.0 0.0 0.00 0.10 0.00 89 1021.2
20260507112016 10 0.0 0.0 0.00 0.10 0.00 89 1021.1
20260507111016 10 0.0 0.0 0.00 0.10 0.00 89 1021.2
20260507110016 10 0.0 0.0 0.00 0.10 0.00 89 1021.2
20260507105016 10 0.0 0.0 0.00 0.10 0.00 89 1021.2
20260507104016 10 0.0 0.0 0.00 0.10 0.00 89 1021.1
20260507103016 10 0.0 0.0 0.00 0.10 0.00 89 1020.7
20260507102016 10 0.0 0.0 0.00 0.10 0.00 89 1020.7
20260507101036 10 0.0 0.0 0.00 0.10 0.00 88 1020.5
20260507100016 11 0.0 0.0 0.00 0.10 0.00 88 1020.3
20260507095016 11 0.0 0.0 0.00 0.10 0.00 88 1020.2
20260507094036 11 0.0 0.0 0.00 0.10 0.00 88 1019.9
20260507093016 11 0.0 0.0 0.00 0.10 0.00 88 1019.9
20260507092016 11 0.0 0.0 0.00 0.10 0.00 87 1019.6
20260507091016 11 0.0 0.0 0.00 0.10 0.00 87 1019.4
20260507090016 11 0.0 0.0 0.00 0.10 0.00 86 1019.0
20260507085016 11 0.0 0.0 0.00 0.10 0.00 86 1018.9
20260507084016 11 0.0 0.0 0.00 0.10 0.00 86 1019.1
20260507083016 11 0.0 0.0 0.00 0.10 0.00 85 1019.0
20260507082016 11 0.0 0.0 0.00 0.10 0.00 84 1019.2
20260507081015 11 0.0 0.0 0.00 0.10 0.00 84 1019.1
20260507080016 12 0.0 0.0 0.00 0.10 0.00 83 1019.1
20260507075015 12 0.0 0.0 0.00 0.10 0.00 83 1019.1
20260507074016 12 0.0 0.0 0.00 0.10 0.00 82 1019.1
20260507073015 12 0.0 0.0 0.00 0.10 0.00 82 1019.1
20260507072015 12 0.0 0.0 0.00 0.10 0.00 82 1018.9
20260507071016 12 0.0 0.0 0.00 0.10 0.00 82 1018.8
20260507070016 12 0.0 0.0 0.00 0.10 0.00 81 1018.6
20260507065016 12 0.0 0.0 0.00 0.10 0.00 81 1018.6
20260507064016 13 0.0 0.0 0.00 0.10 0.00 81 1018.7
20260507063015 13 0.0 0.0 0.00 0.10 0.00 81 1018.4
20260507062015 13 0.0 0.0 0.00 0.10 0.00 80 1018.3
20260507061015 13 0.0 0.0 0.00 0.10 0.00 80 1018.3
20260507060015 13 0.0 0.0 0.00 0.10 0.00 80 1018.1
20260507055016 13 0.0 0.0 0.00 0.10 0.00 80 1018.2
20260507054016 13 0.0 0.0 0.00 0.10 0.00 80 1018.1
20260507053016 13 0.0 0.0 0.00 0.10 0.00 80 1018.2
20260507052015 13 0.0 0.0 0.00 0.10 0.00 79 1018.2
20260507051016 13 0.0 0.0 0.00 0.10 0.00 79 1018.2
20260507050015 13 0.0 0.0 0.00 0.10 0.10 78 1018.1
20260507044016 14 0.0 0.0 0.00 0.10 0.10 76 1018.0
20260507043016 14 0.0 0.0 0.00 0.10 0.10 76 1018.0
20260507042016 14 0.0 0.0 0.00 0.10 0.10 76 1018.0
20260507041016 14 0.0 0.0 0.00 0.10 0.10 76 1018.1
20260507040016 14 0.0 0.0 0.00 0.10 0.10 75 1018.3
20260507035016 14 0.0 0.0 0.00 0.10 0.10 75 1018.3
20260507034016 15 0.0 0.0 0.00 0.10 0.10 76 1018.2
20260507033016 15 0.0 0.0 0.00 0.10 0.10 75 1018.2
20260507032016 15 0.0 0.0 0.00 0.10 0.10 75 1018.0
20260507031016 15 0.0 0.0 0.00 0.10 0.10 75 1018.0
20260507030037 15 0.0 0.0 0.00 0.10 0.10 76 1018.0
20260507025016 15 0.0 0.0 0.00 0.10 0.10 75 1018.0
20260507024016 15 0.0 0.0 0.00 0.10 0.10 76 1017.7
20260507023016 15 0.0 0.0 0.00 0.10 0.10 76 1017.5
20260507022016 15 0.0 0.0 0.00 0.10 0.10 77 1017.4
20260507021036 15 0.0 0.0 0.00 0.10 0.10 77 1017.0